W6MAF Weather Reports


time (UTC)temp
C
wind
direction
speed
KPH
gust
KPH
rain 1hr
cm
rain 24hr
cm
rain mn
cm
humidity
%
barometer
mb
20210518212410 31 325 6.4 8.0 0.00 0.00 0.00 16 1014.4
20210518211912 31 229 19.3 16.1 0.00 0.00 0.00 17 1014.4
20210518211416 31 222 11.3 4.8 0.00 0.00 0.00 16 1014.5
20210518210918 31 267 11.3 12.9 0.00 0.00 0.00 12 1014.4
20210518210416 31 250 17.7 19.3 0.00 0.00 0.00 8 1014.4
20210518205918 31 323 14.5 11.3 0.00 0.00 0.00 9 1014.5
20210518205421 31 0 16.1 12.9 0.00 0.00 0.00 9 1014.5
20210518204923 31 336 17.7 17.7 0.00 0.00 0.00 9 1014.5
20210518204426 31 316 17.7 11.3 0.00 0.00 0.00 8 1014.6
20210518203928 31 307 8.0 8.0 0.00 0.00 0.00 9 1014.6
20210518203427 31 271 14.5 9.7 0.00 0.00 0.00 9 1014.6
20210518202931 31 293 17.7 8.0 0.00 0.00 0.00 9 1014.6
20210518202432 30 307 11.3 14.5 0.00 0.00 0.00 10 1014.8
20210518201933 30 308 17.7 19.3 0.00 0.00 0.00 10 1014.8
20210518201436 30 326 9.7 17.7 0.00 0.00 0.00 10 1014.8
20210518200437 30 312 16.1 20.9 0.00 0.00 0.00 11 1014.9
20210518195941 30 280 14.5 17.7 0.00 0.00 0.00 11 1015.0
20210518195442 30 321 14.5 19.3 0.00 0.00 0.00 11 1015.0
20210518194945 30 25 12.9 20.9 0.00 0.00 0.00 11 1014.9
20210518194446 30 321 14.5 14.5 0.00 0.00 0.00 12 1015.0
20210518193949 30 0 25.7 17.7 0.00 0.00 0.00 11 1015.1
20210518193448 30 353 11.3 12.9 0.00 0.00 0.00 12 1015.2
20210518192951 30 336 12.9 20.9 0.00 0.00 0.00 11 1015.1
20210518192452 30 343 16.1 19.3 0.00 0.00 0.00 12 1015.2
20210518191955 29 347 17.7 14.5 0.00 0.00 0.00 12 1015.3
20210518191458 28 315 14.5 14.5 0.00 0.00 0.00 12 1015.3
20210518190959 28 325 11.3 16.1 0.00 0.00 0.00 13 1015.3
20210518190458 28 330 14.5 14.5 0.00 0.00 0.00 13 1015.5
20210518190002 28 338 22.5 22.5 0.00 0.00 0.00 13 1015.5
20210518185503 28 336 17.7 14.5 0.00 0.00 0.00 13 1015.5
20210518185005 28 335 17.7 11.3 0.00 0.00 0.00 13 1015.5
20210518184508 28 7 20.9 20.9 0.00 0.00 0.00 13 1015.3
20210518184010 28 295 0.0 12.9 0.00 0.00 0.00 13 1015.5
20210518183509 27 312 16.1 12.9 0.00 0.00 0.00 14 1015.5
20210518183011 27 342 9.7 11.3 0.00 0.00 0.00 14 1015.5
20210518182514 27 336 24.1 14.5 0.00 0.00 0.00 14 1015.6
20210518182017 27 295 16.1 9.7 0.00 0.00 0.00 14 1015.6
20210518181519 27 335 19.3 16.1 0.00 0.00 0.00 15 1015.6
20210518181021 27 338 17.7 24.1 0.00 0.00 0.00 15 1015.5
20210518180520 27 4 19.3 20.9 0.00 0.00 0.00 15 1015.6
20210518180022 26 325 19.3 29.0 0.00 0.00 0.00 15 1015.6
20210518175524 26 332 16.1 8.0 0.00 0.00 0.00 15 1015.6
20210518175027 26 3 19.3 20.9 0.00 0.00 0.00 15 1015.6
20210518174529 26 342 14.5 11.3 0.00 0.00 0.00 16 1015.6
20210518174031 26 17 9.7 6.4 0.00 0.00 0.00 16 1015.6
20210518173531 26 298 11.3 0.0 0.00 0.00 0.00 16 1015.7
20210518173033 26 326 19.3 14.5 0.00 0.00 0.00 17 1015.7
20210518172535 26 359 19.3 12.9 0.00 0.00 0.00 17 1015.7
20210518172038 26 359 17.7 14.5 0.00 0.00 0.00 17 1015.8
20210518171541 26 357 17.7 20.9 0.00 0.00 0.00 17 1015.8
20210518171042 25 339 17.7 14.5 0.00 0.00 0.00 18 1015.8
20210518170541 25 339 12.9 12.9 0.00 0.00 0.00 18 1015.8
20210518170045 25 329 20.9 17.7 0.00 0.00 0.00 19 1015.9
20210518165547 25 342 20.9 20.9 0.00 0.00 0.00 19 1015.9
20210518165049 25 10 17.7 14.5 0.00 0.00 0.00 19 1015.8
20210518164552 25 338 17.7 17.7 0.00 0.00 0.00 20 1015.8
20210518164053 25 301 11.3 22.5 0.00 0.00 0.00 21 1015.9
20210518163551 24 332 16.1 16.1 0.00 0.00 0.00 21 1015.9
20210518163053 24 333 22.5 20.9 0.00 0.00 0.00 21 1015.9
20210518162555 24 297 17.7 14.5 0.00 0.00 0.00 21 1016.0
20210518162057 24 318 16.1 12.9 0.00 0.00 0.00 22 1016.0
20210518161600 23 329 11.3 6.4 0.00 0.00 0.00 24 1015.9
20210518161102 23 311 14.5 14.5 0.00 0.00 0.00 24 1016.0
20210518160602 23 340 12.9 14.5 0.00 0.00 0.00 25 1016.0
20210518160104 22 343 9.7 9.7 0.00 0.00 0.00 26 1016.0
20210518155606 22 332 11.3 19.3 0.00 0.00 0.00 27 1016.0
20210518155109 22 325 17.7 22.5 0.00 0.00 0.00 28 1016.0
20210518154611 21 309 12.9 14.5 0.00 0.00 0.00 31 1015.9
20210518154114 21 311 16.1 20.9 0.00 0.00 0.00 33 1016.0
20210518153612 20 343 14.5 16.1 0.00 0.00 0.00 36 1016.0
20210518153115 20 73 11.3 9.7 0.00 0.00 0.00 40 1016.0
20210518152617 20 108 3.2 0.0 0.00 0.00 0.00 41 1016.1
20210518152120 19 63 1.6 8.0 0.00 0.00 0.00 42 1016.1
20210518151624 19 65 3.2 9.7 0.00 0.00 0.00 44 1016.0
20210518151125 18 59 4.8 12.9 0.00 0.00 0.00 46 1016.0
20210518150623 18 66 8.0 6.4 0.00 0.00 0.00 46 1015.9
20210518150126 18 104 0.0 0.0 0.00 0.00 0.00 51 1016.0
20210518145629 17 83 3.2 6.4 0.00 0.00 0.00 54 1016.0
20210518145134 17 93 8.0 4.8 0.00 0.00 0.00 59 1015.9
20210518145130 17 93 8.0 4.8 0.00 0.00 0.00 59 1015.9
20210518144635 17 73 0.0 0.0 0.00 0.00 0.00 64 1015.8
20210518144135 16 73 0.0 0.0 0.00 0.00 0.00 72 1015.8
20210518143634 16 73 0.0 0.0 0.00 0.00 0.00 85 1015.7
20210518143137 15 73 0.0 0.0 0.00 0.00 0.00 92 1015.8
20210518142640 15 73 0.0 0.0 0.00 0.00 0.00 99 1015.7
20210518142141 14 120 0.0 4.8 0.00 0.00 0.00 100 1015.7
20210518141643 13 86 1.6 6.4 0.00 0.00 0.00 100 1015.6
20210518141145 12 87 8.0 12.9 0.00 0.00 0.00 100 1015.5
20210518140645 12 131 4.8 1.6 0.00 0.00 0.00 100 1015.5
20210518140148 11 143 8.0 11.3 0.00 0.00 0.00 100 1015.3
20210518135650 11 135 9.7 8.0 0.00 0.00 0.00 100 1015.3
20210518135152 11 150 8.0 8.0 0.00 0.00 0.00 100 1015.3
20210518134654 10 136 9.7 6.4 0.00 0.00 0.00 100 1015.2
20210518134200 -17 169 14.5 0.0 0.00 0.00 0.00 100 1015.2
20210518134156 9 169 14.5 14.5 0.00 0.00 0.00 100 1015.2
20210518133158 8 163 0.0 0.0 0.00 0.00 0.00 100 1015.2
20210518132700 8 186 4.8 0.0 0.00 0.00 0.00 100 1015.2
20210518132202 8 167 0.0 4.8 0.00 0.00 0.00 100 1015.2
20210518131705 8 180 0.0 0.0 0.00 0.00 0.00 100 1015.2
20210518131207 8 210 0.0 8.0 0.00 0.00 0.00 100 1015.1
20210518130706 8 194 0.0 0.0 0.00 0.00 0.00 100 1015.2
20210518130209 8 194 0.0 0.0 0.00 0.00 0.00 100 1015.1
20210518125710 8 194 0.0 0.0 0.00 0.00 0.00 100 1015.1
20210518125212 8 211 11.3 9.7 0.00 0.00 0.00 100 1015.2
20210518124715 8 184 8.0 0.0 0.00 0.00 0.00 100 1015.1
20210518124217 8 221 14.5 14.5 0.00 0.00 0.00 100 1015.2
20210518123716 8 236 9.7 6.4 0.00 0.00 0.00 100 1015.1
20210518123218 8 190 12.9 9.7 0.00 0.00 0.00 100 1015.0
20210518122721 8 205 12.9 11.3 0.00 0.00 0.00 100 1015.1
20210518121725 8 224 6.4 14.5 0.00 0.00 0.00 100 1015.1
20210518121230 8 231 8.0 16.1 0.00 0.00 0.00 100 1015.0
20210518120727 8 86 11.3 0.0 0.00 0.00 0.00 100 1015.0
20210518120229 8 97 9.7 9.7 0.00 0.00 0.00 100 1015.0
20210518115732 8 225 14.5 12.9 0.00 0.00 0.00 100 1015.0
20210518115234 8 203 12.9 8.0 0.00 0.00 0.00 100 1014.8
20210518114736 8 103 8.0 8.0 0.00 0.00 0.00 100 1014.8
20210518114240 8 235 14.5 19.3 0.00 0.00 0.00 100 1014.8
20210518113738 8 238 14.5 11.3 0.00 0.00 0.00 100 1014.6
20210518113241 8 257 6.4 12.9 0.00 0.00 0.00 100 1014.6
20210518112742 8 240 17.7 22.5 0.00 0.00 0.00 100 1014.5
20210518112245 8 239 17.7 12.9 0.00 0.00 0.00 100 1014.6
20210518111749 8 245 19.3 24.1 0.00 0.00 0.00 100 1014.6
20210518110748 8 248 17.7 14.5 0.00 0.00 0.00 100 1014.6
20210518110251 8 232 20.9 27.4 0.00 0.00 0.00 100 1014.8
20210518105753 8 240 17.7 27.4 0.00 0.00 0.00 100 1014.8
20210518105255 8 240 19.3 22.5 0.00 0.00 0.00 100 1014.8
20210518104758 8 229 16.1 14.5 0.00 0.00 0.00 100 1014.8
20210518104301 8 253 17.7 12.9 0.00 0.00 0.00 100 1014.8
20210518103800 8 212 19.3 29.0 0.00 0.00 0.00 100 1014.8
20210518103301 8 235 19.3 19.3 0.00 0.00 0.00 100 1014.8
20210518102804 8 253 22.5 22.5 0.00 0.00 0.00 100 1014.8
20210518102306 8 235 20.9 24.1 0.00 0.00 0.00 100 1014.8
20210518101807 8 235 19.3 17.7 0.00 0.00 0.00 100 1014.6
20210518101309 8 87 24.1 12.9 0.00 0.00 0.00 100 1014.6
20210518100808 8 262 29.0 19.3 0.00 0.00 0.00 100 1014.6
20210518100310 8 229 24.1 20.9 0.00 0.00 0.00 100 1014.6
20210518095813 8 231 22.5 22.5 0.00 0.00 0.00 100 1014.5
20210518095315 8 232 25.7 32.2 0.00 0.00 0.00 100 1014.5
20210518094817 8 239 32.2 29.0 0.00 0.00 0.00 100 1014.6
20210518094320 8 212 27.4 29.0 0.00 0.00 0.00 100 1014.6
20210518093818 8 232 27.4 22.5 0.00 0.00 0.00 100 1014.5
20210518093320 8 219 27.4 19.3 0.00 0.00 0.00 100 1014.5
20210518092823 8 238 27.4 24.1 0.00 0.00 0.00 100 1014.6
20210518092325 8 249 25.7 19.3 0.00 0.00 0.00 100 1014.8
20210518091827 8 226 27.4 24.1 0.00 0.00 0.00 100 1014.9
20210518091330 8 218 19.3 22.5 0.00 0.00 0.00 100 1014.8
20210518090829 8 245 29.0 29.0 0.00 0.00 0.00 100 1014.9
20210518090331 8 253 30.6 25.7 0.00 0.00 0.00 100 1014.8
20210518085834 8 225 24.1 30.6 0.00 0.00 0.00 100 1014.9
20210518085336 9 240 30.6 32.2 0.00 0.00 0.00 100 1014.9
20210518084838 9 231 29.0 35.4 0.00 0.00 0.00 100 1015.0
20210518084341 9 245 29.0 27.4 0.00 0.00 0.00 100 1015.1
20210518083841 9 242 25.7 30.6 0.00 0.00 0.00 100 1015.0
20210518083342 9 243 27.4 29.0 0.00 0.00 0.00 100 1015.0
20210518082844 9 235 27.4 32.2 0.00 0.00 0.00 100 1015.0
20210518082346 9 233 32.2 30.6 0.00 0.00 0.00 100 1015.0
20210518081849 9 221 30.6 38.6 0.00 0.00 0.00 100 1015.0
20210518081351 9 250 35.4 35.4 0.00 0.00 0.00 100 1015.0
20210518080850 9 250 32.2 33.8 0.00 0.00 0.00 100 1015.1
20210518080354 9 264 30.6 19.3 0.00 0.00 0.00 100 1015.2
20210518075855 9 239 32.2 25.7 0.00 0.00 0.00 100 1015.3
20210518075358 9 243 27.4 30.6 0.00 0.00 0.00 100 1015.2
20210518074900 9 249 32.2 20.9 0.00 0.00 0.00 100 1015.3
20210518074402 9 211 29.0 27.4 0.00 0.00 0.00 100 1015.5
20210518073933 9 264 25.7 29.0 0.00 0.00 0.00 100 1015.5
20210518073901 9 264 25.7 29.0 0.00 0.00 0.00 100 1015.5
20210518073402 9 236 24.1 30.6 0.00 0.00 0.00 100 1015.2
20210518072905 9 233 25.7 20.9 0.00 0.00 0.00 100 1015.2
20210518072407 9 239 22.5 30.6 0.00 0.00 0.00 100 1015.1
20210518071909 9 239 24.1 25.7 0.00 0.00 0.00 100 1015.0
20210518071412 9 204 25.7 24.1 0.00 0.00 0.00 100 1015.0
20210518070911 9 262 22.5 22.5 0.00 0.00 0.00 100 1015.0
20210518070414 9 228 25.7 24.1 0.00 0.00 0.00 100 1015.0
20210518065916 9 238 27.4 37.0 0.00 0.00 0.00 100 1015.0
20210518065418 9 250 27.4 25.7 0.00 0.00 0.00 100 1015.1
20210518064922 9 242 27.4 24.1 0.00 0.00 0.00 100 1015.1
20210518064422 9 257 27.4 32.2 0.00 0.00 0.00 100 1015.1
20210518063922 9 236 27.4 30.6 0.00 0.00 0.00 100 1015.1
20210518063424 9 243 24.1 32.2 0.00 0.00 0.00 100 1015.2
20210518062926 9 250 27.4 25.7 0.00 0.00 0.00 100 1015.3
20210518062429 9 242 25.7 33.8 0.00 0.00 0.00 100 1015.5
20210518061931 9 243 29.0 30.6 0.00 0.00 0.00 100 1015.5
20210518061435 9 214 29.0 22.5 0.00 0.00 0.00 100 1015.5
20210518060932 9 263 25.7 25.7 0.00 0.00 0.00 100 1015.6
20210518060435 9 240 22.5 22.5 0.00 0.00 0.00 100 1015.6
20210518055937 9 229 24.1 20.9 0.00 0.00 0.00 100 1015.7
20210518055440 9 240 27.4 25.7 0.00 0.00 0.00 100 1015.8
20210518054943 9 236 24.1 24.1 0.00 0.00 0.00 100 1015.8
20210518054444 9 239 24.1 25.7 0.00 0.00 0.00 100 1015.7
20210518053944 9 242 24.1 27.4 0.00 0.00 0.00 100 1015.8
20210518053445 9 250 24.1 19.3 0.00 0.00 0.00 100 1015.7
20210518052948 9 256 24.1 20.9 0.00 0.00 0.00 100 1015.7
20210518052450 9 232 27.4 25.7 0.00 0.00 0.00 100 1015.6
20210518051952 9 253 24.1 24.1 0.00 0.00 0.00 100 1015.7
20210518051455 9 235 25.7 19.3 0.00 0.00 0.00 100 1015.7
20210518050954 9 255 22.5 17.7 0.00 0.00 0.00 100 1015.8
20210518050457 9 229 25.7 17.7 0.00 0.00 0.00 100 1015.7
20210518050000 9 248 27.4 29.0 0.00 0.00 0.00 100 1015.7
20210518045500 9 246 27.4 24.1 0.00 0.00 0.00 100 1015.7
20210518045001 10 219 22.5 27.4 0.00 0.00 0.00 100 1015.7
20210518044504 10 246 25.7 20.9 0.00 0.00 0.00 100 1015.8
20210518044003 10 239 24.1 29.0 0.00 0.00 0.00 100 1015.7
20210518043505 10 248 22.5 24.1 0.00 0.00 0.00 100 1015.6
20210518043007 10 250 27.4 32.2 0.00 0.00 0.00 100 1015.6
20210518042510 10 270 27.4 24.1 0.00 0.00 0.00 100 1015.5
20210518042012 10 266 24.1 17.7 0.00 0.00 0.00 100 1015.6
20210518041515 10 214 30.6 22.5 0.00 0.00 0.00 100 1015.3
20210518041013 10 243 25.7 27.4 0.00 0.00 0.00 100 1015.3
20210518040516 10 257 27.4 32.2 0.00 0.00 0.00 100 1015.3
20210518040018 10 242 25.7 27.4 0.00 0.00 0.00 100 1015.3
20210518035520 10 257 22.5 22.5 0.00 0.00 0.00 100 1015.0
20210518035023 10 246 29.0 24.1 0.00 0.00 0.00 100 1015.1
20210518034528 10 246 27.4 25.7 0.00 0.00 0.00 100 1015.1
20210518034025 10 238 30.6 27.4 0.00 0.00 0.00 100 1015.0
20210518033526 10 257 27.4 29.0 0.00 0.00 0.00 100 1015.1
20210518033029 10 239 25.7 29.0 0.00 0.00 0.00 100 1015.0
20210518032532 10 195 29.0 35.4 0.00 0.00 0.00 100 1014.9
20210518032032 10 228 29.0 20.9 0.00 0.00 0.00 100 1014.9
20210518031536 10 242 30.6 20.9 0.00 0.00 0.00 100 1014.9
20210518031033 10 222 33.8 30.6 0.00 0.00 0.00 100 1014.9
20210518030534 10 249 33.8 37.0 0.00 0.00 0.00 100 1014.9
20210518030037 10 240 32.2 33.8 0.00 0.00 0.00 100 1014.8
20210518025540 10 217 33.8 32.2 0.00 0.00 0.00 100 1014.8
20210518025041 10 245 32.2 27.4 0.00 0.00 0.00 100 1014.6
20210518024544 11 232 35.4 32.2 0.00 0.00 0.00 99 1014.5
20210518024043 11 225 37.0 29.0 0.00 0.00 0.00 98 1014.6
20210518023545 11 246 27.4 35.4 0.00 0.00 0.00 97 1014.8
20210518023047 11 239 27.4 27.4 0.00 0.00 0.00 96 1014.8
20210518022551 11 238 29.0 37.0 0.00 0.00 0.00 95 1014.6
20210518021555 12 243 29.0 35.4 0.00 0.00 0.00 92 1014.5
20210518021053 12 228 30.6 29.0 0.00 0.00 0.00 90 1014.5
20210518020555 12 236 32.2 33.8 0.00 0.00 0.00 88 1014.4
20210518020058 12 255 29.0 24.1 0.00 0.00 0.00 86 1014.4
20210518015559 13 238 30.6 43.5 0.00 0.00 0.00 84 1014.3
20210518015104 13 242 30.6 16.1 0.00 0.00 0.00 84 1014.2
20210518014604 13 239 25.7 27.4 0.00 0.00 0.00 82 1014.3
20210518014104 13 236 27.4 29.0 0.00 0.00 0.00 80 1014.3
20210518013606 14 219 25.7 27.4 0.00 0.00 0.00 80 1014.3
20210518013109 13 238 25.7 24.1 0.00 0.00 0.00 80 1014.4
20210518012610 14 236 25.7 29.0 0.00 0.00 0.00 79 1014.4
20210518012112 14 226 27.4 33.8 0.00 0.00 0.00 78 1014.4
20210518011616 14 232 27.4 22.5 0.00 0.00 0.00 77 1014.4
20210518011114 15 242 32.2 32.2 0.00 0.00 0.00 77 1014.4
20210518010617 15 235 30.6 27.4 0.00 0.00 0.00 76 1014.5
20210518010118 15 240 27.4 25.7 0.00 0.00 0.00 75 1014.5
20210518005622 15 235 30.6 37.0 0.00 0.00 0.00 73 1014.5
20210518005123 15 228 29.0 24.1 0.00 0.00 0.00 73 1014.4
20210518004627 15 250 30.6 27.4 0.00 0.00 0.00 72 1014.4
20210518004125 15 201 25.7 22.5 0.00 0.00 0.00 72 1014.4
20210518003632 -17 236 35.4 25.7 0.00 0.00 0.00 71 1014.4
20210518003628 15 236 35.4 25.7 0.00 0.00 0.00 71 1014.4
20210518003130 16 228 30.6 24.1 0.00 0.00 0.00 70 1014.4
20210518002633 16 231 27.4 30.6 0.00 0.00 0.00 70 1014.4
20210518002134 16 229 29.0 20.9 0.00 0.00 0.00 70 1014.4
20210518001636 16 245 29.0 33.8 0.00 0.00 0.00 69 1014.4
20210518001136 16 235 33.8 32.2 0.00 0.00 0.00 68 1014.4
20210518000140 16 240 30.6 29.0 0.00 0.00 0.00 66 1014.4
20210517235642 16 195 27.4 30.6 0.00 0.00 0.00 67 1014.3
20210517235144 16 236 32.2 38.6 0.00 0.00 0.00 61 1014.3
20210517234146 16 229 33.8 37.0 0.00 0.00 0.00 60 1014.3
20210517233648 16 228 33.8 35.4 0.00 0.00 0.00 60 1014.3
20210517233151 17 240 37.0 29.0 0.00 0.00 0.00 58 1014.3
20210517232653 17 200 32.2 40.2 0.00 0.00 0.00 64 1014.4
20210517232155 17 239 32.2 37.0 0.00 0.00 0.00 63 1014.4
20210517231658 17 225 33.8 32.2 0.00 0.00 0.00 62 1014.4
20210517231157 17 256 35.4 25.7 0.00 0.00 0.00 54 1014.4
20210517230659 17 222 37.0 40.2 0.00 0.00 0.00 53 1014.4
20210517230201 18 236 27.4 30.6 0.00 0.00 0.00 53 1014.4
20210517225703 18 233 29.0 24.1 0.00 0.00 0.00 51 1014.5
20210517225207 18 226 29.0 35.4 0.00 0.00 0.00 57 1014.5
20210517224708 18 217 29.0 32.2 0.00 0.00 0.00 57 1014.5
20210517224206 18 217 32.2 29.0 0.00 0.00 0.00 56 1014.4
20210517223709 18 232 33.8 29.0 0.00 0.00 0.00 55 1014.6
20210517223211 19 228 32.2 24.1 0.00 0.00 0.00 53 1014.8
20210517222713 19 231 27.4 29.0 0.00 0.00 0.00 53 1014.8
20210517222214 19 248 35.4 30.6 0.00 0.00 0.00 52 1014.9
20210517221717 19 235 32.2 33.8 0.00 0.00 0.00 52 1014.9
20210517221216 19 211 27.4 19.3 0.00 0.00 0.00 52 1014.9
20210517220718 19 225 25.7 35.4 0.00 0.00 0.00 52 1014.9
20210517220220 20 219 30.6 24.1 0.00 0.00 0.00 50 1015.0
20210517215725 20 232 32.2 27.4 0.00 0.00 0.00 51 1015.0
20210517215225 20 212 35.4 33.8 0.00 0.00 0.00 50 1015.1
20210517214727 20 236 30.6 27.4 0.00 0.00 0.00 50 1015.0
20210517214226 20 236 32.2 37.0 0.00 0.00 0.00 50 1015.1
20210517213729 20 236 32.2 27.4 0.00 0.00 0.00 49 1015.1
20210517213231 20 252 20.9 29.0 0.00 0.00 0.00 49 1015.1
20210517212733 20 225 30.6 32.2 0.00 0.00 0.00 49 1015.1